Content
SEND FEEDBACK

Daily
Averages
Monthly
Summary
United States of America

PUT IN BAY, OHIO


Home > North America > United States > Ohio
Elevation: 561 feet     Latitude: 41 39N     Longitude: 082 48W

WEATHER
 
SELECT A DAY
Number of Records: 125,217;   Date Range: 12/10/00 - 11/21/14
 
SHARE

PRINT THIS DATA

[ ← Previous Day ]
WEATHER ALMANAC - OCTOBER 5, 2013
[ Next Day → ]
[ °C ]   °F
Weather ElementAverageHighLow
Temperature67.3 °F72.1 °F (11:00 am)63 °F (1:00 am)
Dewpoint64.8 °F66.6 °F (5:00 pm)61 °F (1:00 am)
Humidity91.3 %95 % (5:00 am)79 % (11:00 am)
Barometer29.97 in30.02 in (9:00 am)29.89 in (11:00 pm)
Wind Speed4.1 mph11.5 mph (12:00 pm)
Wind Gust17.3 mph (12:00 pm)
Weather ElementAverage
Wind DirectionSE (131.9 °)

Weather ElementTotal
Precipitation0.01 in
Cooling Degree Days2.6 (Base 65)
Growing Degree Days17.6 (Base 50)
Averaged from 26 records on October 5, 2013
WEATHER CONDITIONS BREAKOUT
WIND DIRECTION BREAKOUT
WEATHER BY HOUR - OCTOBER 5, 2013
[ °C ]   °F
Local TimeTemperatureDewpointHumidityBarometerVisibilityWind DirectionWind SpeedGust SpeedPrecipitationEventsConditions
1:00 AM63.0 °F61.0 °F93 %30.00 inCalm
2:00 AM63.0 °F62.0 °F93 %30.01 inSSE (150°)1.2 mph
2:00 AM63.1 °F61.5 °F94 %30.01 inSSE (150°)1.2 mph
3:00 AM64.6 °F63.0 °F94 %30.01 inEast (90°)1.2 mph
4:00 AM64.2 °F62.6 °F94 %29.99 inNE (50°)2.3 mph
5:00 AM64.6 °F63.1 °F95 %29.99 inEast (80°)2.3 mph
6:00 AM65.5 °F63.9 °F94 %30.00 inSE (130°)2.3 mph
7:00 AM65.5 °F63.7 °F94 %30.00 inENE (70°)1.2 mph
8:00 AM66.0 °F64.0 °F92 %30.01 inENE (70°)2.3 mph
8:00 AM65.8 °F64.2 °F94 %30.01 inENE (70°)2.3 mph
9:00 AM67.3 °F65.5 °F94 %30.02 inSSE (150°)1.2 mph
10:00 AM69.3 °F66.2 °F90 %30.00 inSE (140°)4.6 mph0.01 in
11:00 AM72.1 °F65.3 °F79 %29.99 inSSE (150°)8.1 mph
12:00 PM70.5 °F65.5 °F84 %29.99 inSouth (180°)11.5 mph17.3 mph
1:00 PM69.3 °F65.1 °F87 %29.98 inSouth (170°)8.1 mph
2:00 PM69.0 °F66.0 °F89 %29.96 inSouth (190°)6.9 mph
2:00 PM69.1 °F66.4 °F91 %29.96 inSouth (190°)6.9 mph
3:00 PM69.3 °F66.0 °F89 %29.95 inSSW (200°)9.2 mph
4:00 PM70.2 °F66.2 °F87 %29.93 inSouth (180°)8.1 mph
5:00 PM69.8 °F66.6 °F89 %29.92 inSouth (170°)6.9 mph
6:00 PM69.1 °F66.2 °F91 %29.92 inSouth (180°)4.6 mph
7:00 PM68.2 °F66.0 °F93 %29.91 inSouth (170°)5.8 mph
8:00 PM67.6 °F65.8 °F94 %29.91 inSE (140°)2.3 mph
9:00 PM67.3 °F65.5 °F94 %29.91 inESE (110°)1.2 mph
10:00 PM67.8 °F66.0 °F94 %29.90 inESE (120°)2.3 mph
11:00 PM68.5 °F66.4 °F93 %29.89 inSE (130°)3.5 mph
Hourly data recorded from CXHA, located miles away from Put In Bay, Ohio







STORIES FROM OUR PARTNERS